This is the latest recevied weather packets stored in our database for station/object W0VI. If no packets are shown the sender has not sent any weather packets the latest 10 day(s).
| Time | Temp. | Humidity | Pressure | Rain* | Wind** | Luminosity | Snow |
|---|---|---|---|---|---|---|---|
| 1777652475 | 8.89° C | 41% | 1019.4 hPa | 0 mm | - | 831 W/m² | - |
| 1777652172 | 9.44° C | 41% | 1019.4 hPa | 0 mm | - | 852 W/m² | - |
| 1777651863 | 8.89° C | 39% | 1019.5 hPa | 0 mm | - | 792 W/m² | - |
| 1777651560 | 7.78° C | 41% | 1019.5 hPa | 0 mm | - | 772 W/m² | - |
| 1777651257 | 8.89° C | 41% | 1019.6 hPa | 0 mm | - | 226 W/m² | - |
| 1777650953 | 9.44° C | 41% | 1019.5 hPa | 0 mm | - | 784 W/m² | - |
| 1777650651 | 9.44° C | 42% | 1019.4 hPa | 0 mm | - | 810 W/m² | - |
| 1777650348 | 8.89° C | 39% | 1019.5 hPa | 0 mm | - | 711 W/m² | - |
| 1777650045 | 9.44° C | 41% | 1019.3 hPa | 0 mm | - | 685 W/m² | - |
| 1777649742 | 8.33° C | 42% | 1019.4 hPa | 0 mm | - | 686 W/m² | - |
| 1777649439 | 8.33° C | 42% | 1019.6 hPa | 0 mm | - | 666 W/m² | - |
| 1777649136 | 8.33° C | 43% | 1019.4 hPa | 0 mm | - | 663 W/m² | - |
| 1777648833 | 8.33° C | 44% | 1019.5 hPa | 0 mm | - | 640 W/m² | - |
| 1777648530 | 8.33° C | 45% | 1019.4 hPa | 0 mm | - | 615 W/m² | - |
| 1777648227 | 7.78° C | 44% | 1019.5 hPa | 0 mm | - | 595 W/m² | - |
| 1777647922 | 7.78° C | 46% | 1019.5 hPa | 0 mm | - | 571 W/m² | - |
| 1777647618 | 7.78° C | 44% | 1019.4 hPa | 0 mm | - | 555 W/m² | - |
| 1777647309 | 8.33° C | 46% | 1019.4 hPa | 0 mm | - | 539 W/m² | - |
| 1777647008 | 7.78° C | 46% | 1019.5 hPa | 0 mm | - | 551 W/m² | - |
| 1777646703 | 7.78° C | 46% | 1019.4 hPa | 0 mm | - | 531 W/m² | - |
| 1777646399 | 7.22° C | 47% | 1019.5 hPa | 0 mm | - | 326 W/m² | - |
| 1777646095 | 7.78° C | 47% | 1019.4 hPa | 0 mm | - | 438 W/m² | - |
| 1777645792 | 7.22° C | 47% | 1019.4 hPa | 0 mm | - | 359 W/m² | - |
| 1777645490 | 7.22° C | 49% | 1019.5 hPa | 0 mm | - | 345 W/m² | - |
| 1777645185 | 6.67° C | 49% | 1019.4 hPa | 0 mm | - | 537 W/m² | - |
* Rain latest hour (hover to see other rain measurements)
** Current wind speed in m/s (hover to see current wind gust speed)